GFSFLT2_sfc_temp_000.txt.gz
Temp
61 63 60 56 57 57 59 59 59 59 61 61 60 61 61 61 60 59 59 59 59 58 58 57 56 56 56
57 58 58 59 58 57 56 56 56 58 58 59 60 59 60 59 57 56 56 56 56 55 55 55 55 55 55
54 57 57 58 49 51 53 53 53 54 56 57 58 58 58 57 55 54 53 52 52 52 52 52 53 53 53
53 54 55 56 50 52 49 45 48 49 51 54 56 56 56 54 52 51 50 50 50 50 50 50 50 50 51
50 52 52 52 47 48 48 50 45 48 45 47 50 51 51 52 49 48 48 48 48 48 49 49 48 48 49
46 47 49 51 53 52 50 47 44 43 43 44 46 44 45 47 48 47 47 46 47 48 49 48 48 47 48
44 46 47 50 51 50 51 49 49 40 42 40 39 40 39 42 46 45 45 45 46 47 47 47 47 47 47
46 46 47 49 49 48 48 47 36 38 40 36 35 36 36 38 45 44 44 44 44 46 47 46 46 46 46
48 48 48 49 49 46 44 39 37 34 33 33 31 31 32 33 37 41 41 43 46 47 46 46 45 45 44
44 46 47 46 44 42 43 41 36 30 32 32 30 30 28 30 31 32 37 45 47 46 46 46 45 36 33
40 42 42 35 36 35 35 39 36 33 34 33 30 28 28 26 28 30 32 32 32 38 45 44 44 40 30
35 36 35 34 33 33 33 33 34 34 35 32 29 28 26 25 25 28 27 29 30 29 29 34 40 43 42
34 34 34 32 30 30 31 30 29 30 29 29 29 27 26 25 24 24 26 27 26 25 25 26 26 28 27
33 34 32 30 29 29 28 29 27 25 28 28 27 26 23 24 24 22 22 22 24 23 24 25 26 27 27
32 31 31 29 27 28 28 28 26 25 24 26 27 26 25 22 19 21 21 21 22 22 22 23 24 26 26
31 30 29 27 26 27 28 27 25 25 24 25 24 19 19 22 25 21 22 21 22 22 23 21 23 24 26
30 29 28 27 28 26 27 27 26 24 21 20 14 10 9 12 19 30 23 22 22 22 23 22 22 24 26

GFSFLT2_sfc_temp_003.txt.gz
Temp
55 57 57 57 59 57 57 58 59 59 60 60 59 58 59 60 61 63 64 64 64 65 64 63 61 60 59
51 52 55 57 58 57 57 56 56 58 59 58 58 59 58 58 59 60 61 61 62 62 62 61 60 58 58
48 52 53 55 55 56 53 54 52 53 55 56 58 58 57 57 58 58 59 58 58 58 57 56 56 56 56
44 47 49 52 52 49 51 48 48 51 52 53 55 55 55 56 57 56 55 55 55 54 53 53 52 52 53
41 43 44 45 46 49 49 51 51 48 49 47 48 49 51 55 55 53 53 53 53 52 51 50 49 50 51
40 40 41 44 45 45 45 44 44 45 45 47 46 46 49 51 54 52 51 51 50 50 49 48 47 47 48
40 40 41 44 45 43 44 44 44 48 43 43 41 43 41 44 51 50 49 49 48 48 47 47 47 46 46
43 44 44 45 45 45 44 44 45 45 43 41 38 40 37 40 49 48 47 47 47 46 46 46 45 45 46
45 46 46 45 46 44 43 41 40 42 38 37 32 31 33 35 42 46 46 46 45 44 43 43 45 46 46
40 40 41 41 44 39 38 35 35 37 34 35 30 31 29 30 32 38 39 41 41 42 43 45 46 41 36
36 36 37 37 38 37 36 33 32 34 37 36 31 29 29 26 28 30 31 33 37 40 45 46 46 40 34
33 33 34 34 35 33 32 32 32 31 34 33 30 28 26 25 24 26 27 28 31 31 32 41 46 45 41
31 32 33 33 33 30 31 30 28 28 28 30 29 29 27 25 23 23 25 27 30 29 29 29 30 29 31
31 32 33 33 30 29 28 28 26 25 27 28 27 27 24 25 25 25 25 24 26 26 27 26 27 28 28
31 30 30 31 29 28 28 28 25 24 24 26 27 26 25 25 23 24 23 24 25 24 24 24 25 26 27
30 30 29 28 28 27 28 26 25 24 24 25 24 23 23 25 28 23 23 22 23 23 23 22 23 24 25
29 29 28 28 28 26 27 26 25 23 22 21 19 18 18 16 20 30 23 22 22 21 22 21 22 24 26

GFSFLT2_sfc_temp_006.txt.gz
Temp
48 49 48 49 54 56 57 57 59 59 60 60 59 59 59 59 59 59 59 61 63 66 67 67 67 65 64
43 44 45 47 49 50 53 56 56 57 59 59 58 58 58 58 58 58 58 58 59 61 64 65 65 64 63
39 43 42 44 45 48 49 50 54 54 56 56 56 57 57 57 57 58 57 56 57 57 58 61 63 62 62
38 38 39 42 43 42 43 47 47 52 53 54 55 54 55 56 56 55 54 55 56 57 57 58 59 60 60
36 37 37 37 37 41 42 44 46 47 47 49 51 49 49 52 52 52 53 54 55 56 57 57 57 57 57
35 34 35 37 40 40 40 39 38 47 44 45 47 47 49 48 52 53 53 54 54 55 56 56 54 53 53
34 34 35 39 39 38 39 37 37 43 44 42 46 44 48 48 50 51 52 53 53 54 52 51 50 50 50
38 37 39 40 40 41 38 37 39 42 45 39 44 42 40 40 44 46 49 52 52 51 49 48 48 48 47
42 43 43 43 42 38 34 34 33 35 40 39 41 36 33 34 37 45 50 49 49 48 48 47 46 46 45
36 37 39 39 41 37 35 31 31 31 34 35 32 32 31 31 33 38 44 48 47 47 47 46 45 40 39
33 33 35 35 35 35 35 32 30 29 35 35 32 31 31 28 29 30 35 39 39 41 44 43 43 41 38
29 30 32 32 33 34 34 32 31 29 29 28 30 31 27 26 26 27 28 30 33 35 39 42 43 43 42
27 28 30 32 33 33 32 31 29 28 27 27 30 29 28 26 24 24 26 27 30 30 32 33 33 39 38
26 28 29 31 30 31 29 28 26 26 28 28 26 27 25 26 27 25 26 26 26 27 28 28 30 32 34
25 26 27 29 29 30 28 27 25 24 24 26 27 27 26 26 24 25 24 24 25 25 27 26 28 30 30
25 26 25 28 27 28 27 26 25 24 23 23 23 23 24 26 28 23 24 24 25 26 28 25 25 27 29
24 25 26 27 27 26 26 26 24 23 21 21 19 19 20 18 22 30 24 24 24 24 24 25 24 26 27

GFSFLT2_sfc_temp_009.txt.gz
Temp
51 51 50 50 52 53 53 55 57 56 57 57 57 57 58 58 58 60 60 61 61 62 63 64 65 66 66
44 46 46 48 49 48 50 54 54 54 54 56 55 56 57 57 57 57 58 58 59 59 60 61 62 63 65
40 44 45 47 45 46 47 49 52 51 53 54 55 54 54 55 56 56 56 56 57 57 58 58 59 61 62
39 40 42 44 43 41 41 45 46 51 51 52 53 53 53 54 54 53 53 54 55 56 56 56 56 58 59
37 37 38 39 38 40 38 39 42 44 47 50 51 51 50 52 52 51 52 53 53 54 55 56 56 56 57
35 35 36 38 39 36 36 35 33 45 42 41 46 46 50 50 52 52 51 52 53 53 53 54 54 55 56
34 34 34 36 35 34 34 36 35 41 40 36 41 41 46 48 51 51 51 50 50 51 52 53 53 54 54
38 37 38 39 39 38 37 36 37 38 39 32 40 38 44 47 48 47 48 48 49 48 49 52 52 53 54
40 40 40 40 41 38 34 33 31 35 38 35 35 37 38 38 40 43 43 45 47 48 49 51 50 49 49
36 36 37 37 39 38 34 30 30 30 37 33 35 34 34 38 35 35 35 48 49 49 48 48 46 43 43
31 32 34 35 36 36 33 32 30 29 37 33 32 32 32 33 33 31 32 39 44 45 47 45 44 43 39
28 29 30 30 31 32 33 33 34 32 34 31 28 30 30 31 31 30 30 33 38 39 40 43 43 43 43
27 27 29 29 30 31 33 33 33 32 32 29 28 28 30 31 30 30 29 29 33 35 38 38 37 38 37
26 28 29 29 28 30 31 31 30 31 30 30 29 29 30 31 31 30 30 30 30 31 30 32 37 38 39
26 26 27 27 28 30 30 30 28 28 27 29 29 30 30 30 28 29 29 28 29 30 30 28 29 33 37
26 26 25 25 26 29 29 28 27 25 25 26 26 27 27 28 30 26 27 26 28 29 29 28 26 28 33
25 25 25 25 27 27 28 28 25 25 23 23 22 21 23 21 25 30 26 26 27 27 29 29 29 29 33

GFSFLT2_sfc_temp_012.txt.gz
Temp
49 51 50 51 53 53 54 54 55 52 53 53 54 54 54 55 55 56 57 58 59 60 62 63 63 64 64
44 47 47 49 50 50 52 53 52 52 51 51 52 53 54 54 54 54 55 55 56 57 59 60 61 62 63
40 45 46 48 46 47 48 49 52 50 50 51 52 52 52 53 53 54 53 53 55 55 56 57 58 60 61
40 41 43 45 45 43 43 46 45 49 48 49 50 50 51 52 52 52 51 52 53 54 55 55 55 56 58
37 38 39 40 39 42 39 41 42 45 45 47 49 49 49 49 49 50 51 52 52 53 54 54 54 54 56
36 36 37 38 40 38 37 35 31 45 43 42 45 42 47 49 47 49 49 51 52 52 52 52 52 53 54
36 36 36 38 38 34 35 35 35 41 41 36 43 41 45 48 47 47 48 49 50 51 51 51 51 51 52
40 38 37 39 39 38 35 35 37 40 40 33 40 39 43 39 42 46 48 48 48 49 49 49 49 49 50
40 40 39 39 38 36 32 31 31 35 38 34 36 34 38 39 43 45 44 44 44 45 47 48 48 49 49
37 37 37 37 38 36 33 29 29 29 36 32 33 35 32 41 38 40 43 41 40 47 48 47 49 47 46
33 33 34 35 35 35 34 30 28 28 34 34 32 33 32 32 37 40 35 35 40 44 47 47 47 46 44
30 30 30 30 32 32 32 32 32 31 33 33 31 30 30 30 31 38 34 33 38 39 41 45 46 46 46
28 28 29 30 31 31 32 32 33 33 33 32 31 30 29 28 29 34 32 31 34 37 36 37 38 40 40
27 28 29 29 29 31 29 31 30 32 33 31 30 30 28 29 31 33 33 30 32 33 35 35 36 37 37
26 26 27 28 28 30 29 29 29 29 28 30 31 31 31 30 31 33 32 30 31 32 33 31 34 36 36
26 26 26 26 26 28 29 29 27 26 26 26 27 28 30 29 32 29 30 29 31 32 35 33 31 36 37
25 25 25 25 26 28 29 28 27 26 26 25 24 23 25 22 27 31 29 29 30 30 32 32 30 31 36

GFSFLT2_sfc_temp_015.txt.gz
Temp
45 47 46 46 48 48 49 49 50 51 52 52 52 52 52 52 53 53 54 55 57 57 58 59 61 62 63
41 42 43 45 45 45 47 50 48 50 51 51 51 51 51 51 52 52 53 53 53 55 55 57 58 60 61
36 41 42 43 42 44 44 44 48 48 49 49 49 49 49 50 51 51 51 52 51 52 54 54 56 58 59
37 37 38 40 41 38 37 41 40 45 46 46 47 48 49 50 49 49 49 49 50 51 53 53 53 55 57
33 34 34 35 34 37 35 36 37 39 39 40 42 43 44 47 47 48 49 49 49 50 51 53 53 54 55
32 30 33 34 36 33 32 30 28 39 36 36 40 39 42 44 47 47 48 48 48 49 49 50 51 52 53
33 32 32 34 33 31 31 30 30 35 35 31 37 36 41 44 45 46 46 45 46 47 48 49 50 51 52
37 35 36 36 35 34 32 31 32 34 36 29 35 32 38 39 43 44 45 44 45 45 46 47 49 49 50
40 40 40 39 38 34 28 27 26 29 33 30 31 31 33 34 39 43 40 43 42 44 45 46 46 48 48
34 35 36 35 37 34 30 25 26 24 31 27 28 30 28 34 35 36 37 40 41 40 42 44 45 44 44
31 31 32 32 32 32 32 28 25 25 31 30 28 28 29 28 32 33 34 35 34 36 47 48 48 46 44
28 28 28 28 29 30 30 30 31 29 31 30 27 27 28 26 26 31 33 34 32 36 39 45 48 48 48
26 26 27 28 28 28 29 30 30 31 32 32 30 29 28 25 25 27 29 32 32 33 35 35 37 41 40
25 26 27 27 26 28 26 27 27 28 32 31 29 28 26 27 27 26 31 29 31 32 33 33 35 37 39
25 24 25 25 25 27 27 27 27 26 26 28 29 29 29 29 27 30 29 29 31 32 33 32 32 36 39
24 24 24 24 24 26 28 28 26 26 25 24 25 25 28 29 32 28 29 29 31 32 33 32 32 35 38
23 24 23 24 25 26 27 27 27 27 26 24 23 21 24 21 26 32 28 29 30 29 30 31 32 33 37

GFSFLT2_sfc_temp_018.txt.gz
Temp
40 41 41 41 42 43 44 44 45 49 49 50 50 50 51 51 51 52 53 53 54 55 56 57 58 57 59
36 37 38 40 40 40 43 45 44 47 48 48 48 48 49 49 49 50 51 51 52 52 53 54 55 56 58
33 37 37 39 38 39 39 39 43 45 45 46 46 46 47 48 48 49 49 49 49 49 50 51 53 54 55
33 32 35 36 35 33 33 36 36 40 41 42 44 44 45 46 46 46 46 48 49 50 50 50 51 51 54
30 32 31 32 30 32 30 32 33 35 35 35 36 37 38 42 43 44 46 47 48 48 48 49 49 51 51
30 29 30 31 31 30 29 27 26 34 32 31 35 34 36 38 42 44 44 46 47 47 47 48 48 48 50
30 29 29 30 30 29 28 28 26 31 31 28 33 31 36 39 42 42 43 43 45 46 46 47 47 48 49
34 34 33 35 34 33 31 29 29 31 32 25 31 29 34 36 40 40 41 43 43 41 42 44 45 47 48
38 38 38 38 37 33 26 25 24 26 30 27 27 27 29 31 34 39 39 40 42 42 43 43 44 45 45
31 32 33 32 36 32 29 23 23 22 28 24 25 26 24 31 32 34 34 37 39 40 40 41 42 40 41
28 28 29 29 30 30 29 26 23 23 28 28 26 26 25 25 30 31 31 32 32 33 37 39 41 42 40
26 26 26 25 26 27 28 28 28 27 29 28 26 26 25 25 25 28 29 31 31 32 33 39 48 46 45
24 24 25 25 26 26 27 29 29 29 29 29 29 27 22 21 23 25 27 29 32 32 33 35 36 38 42
24 24 25 25 24 26 24 25 26 27 30 30 26 26 20 24 26 25 28 28 31 32 33 34 37 39 40
23 23 24 24 24 26 25 26 26 26 26 27 27 26 25 26 25 28 28 29 32 32 33 33 34 38 39
23 23 22 22 23 26 26 26 24 26 25 25 23 22 23 27 31 27 28 29 31 32 33 33 32 35 39
22 23 22 22 24 23 25 25 24 25 25 25 22 20 21 20 26 33 28 29 31 31 33 33 33 35 37

GFSFLT2_sfc_temp_021.txt.gz
Temp
38 39 38 38 40 41 42 41 42 46 47 48 48 48 48 48 49 49 50 50 51 52 53 53 53 54 56
35 35 36 38 38 37 40 43 41 42 45 46 46 46 46 47 47 47 48 49 50 50 51 53 53 52 53
31 36 36 36 34 34 36 37 40 42 44 43 44 44 44 45 45 45 46 47 47 48 49 49 48 50 53
32 32 33 34 33 32 31 34 34 38 40 41 42 42 43 43 43 43 43 44 45 47 48 48 49 50 52
30 30 29 30 29 31 30 29 32 33 33 34 34 34 35 38 39 41 42 43 44 44 46 47 47 48 49
28 27 28 29 30 30 28 27 25 34 31 30 33 31 33 35 39 41 42 42 43 45 44 45 47 47 49
29 28 28 30 29 28 27 26 26 30 30 27 31 29 32 36 39 40 41 41 41 42 43 44 45 47 48
32 33 32 33 33 32 30 27 28 30 30 23 28 27 31 33 38 38 39 39 39 41 42 42 42 44 45
37 37 37 37 36 31 25 24 22 25 28 25 25 25 27 28 32 37 39 40 41 41 42 42 42 43 43
29 30 32 31 35 31 26 22 22 21 27 23 24 24 23 28 30 32 33 37 39 39 39 40 41 39 38
27 27 28 29 29 28 27 24 22 21 27 27 25 24 24 23 27 30 31 32 32 31 35 37 39 39 36
25 25 25 25 25 26 27 27 27 26 28 28 25 25 24 23 23 28 29 30 30 30 31 35 38 40 41
23 23 24 25 26 25 27 28 28 29 30 29 28 25 23 22 23 25 27 30 31 32 33 32 36 39 37
23 24 25 24 24 25 24 25 25 26 31 31 29 25 22 22 23 24 28 27 31 33 33 33 38 39 39
23 23 23 23 23 24 24 24 23 23 24 27 28 26 22 22 22 27 27 29 31 32 33 33 35 38 39
23 23 22 22 22 24 24 24 23 24 24 25 24 22 23 24 30 27 29 29 32 33 34 33 32 36 39
22 22 22 21 23 22 23 24 24 25 25 25 24 21 19 19 26 34 28 30 32 33 34 33 32 34 36

GFSFLT2_sfc_temp_024.txt.gz
Temp
37 38 37 37 38 39 40 40 40 43 45 46 46 47 47 48 48 48 48 49 50 50 51 51 52 53 53
33 34 35 37 37 35 38 40 37 42 44 44 45 45 46 46 46 46 46 47 46 46 47 49 51 52 52
30 34 35 35 35 34 35 35 38 41 42 42 43 43 43 43 43 44 43 44 45 46 47 48 49 49 51
31 31 32 33 32 30 30 32 32 37 37 39 40 41 42 42 42 42 42 42 43 44 45 45 46 47 49
29 30 29 29 28 30 28 30 31 31 32 32 33 34 34 37 38 39 40 40 41 43 44 44 44 45 46
28 27 27 28 29 28 27 25 23 33 30 29 32 31 32 33 37 39 40 41 42 42 42 43 44 45 45
27 27 27 28 28 27 26 26 25 29 29 26 30 28 31 34 37 38 39 40 41 41 40 41 42 43 44
31 32 32 33 32 30 28 26 27 29 30 22 27 26 29 30 36 37 38 39 39 40 40 40 41 42 44
36 37 36 36 34 29 24 22 21 24 28 24 24 24 26 27 30 35 37 38 40 40 40 41 41 40 40
29 30 31 31 34 30 25 21 21 20 27 23 23 24 22 28 27 29 31 36 38 38 38 39 40 38 36
26 27 28 29 29 28 27 24 21 21 27 27 24 24 23 23 26 28 29 30 31 31 35 36 37 37 33
25 25 25 24 25 26 27 26 27 25 27 27 25 25 24 23 21 25 27 29 29 30 30 33 36 37 39
23 23 24 25 25 25 26 27 27 27 28 28 27 27 25 22 21 22 24 28 30 30 32 32 32 33 34
23 24 25 24 24 25 23 24 23 25 29 30 29 27 23 22 21 21 25 25 30 32 33 33 37 37 35
23 22 23 23 23 24 23 24 22 23 25 28 29 28 25 22 21 24 27 29 31 32 33 33 34 37 37
22 22 21 22 21 24 24 23 23 24 25 26 26 25 24 26 29 27 30 29 31 33 33 32 32 35 38
20 21 22 21 22 21 22 24 23 25 26 26 25 24 21 20 26 33 30 31 31 33 33 32 32 33 36

GFSFLT2_sfc_temp_027.txt.gz
Temp
34 36 36 36 38 38 39 39 39 41 44 45 45 45 46 46 46 46 46 48 48 49 50 50 50 51 52
31 33 34 36 36 35 37 36 37 41 43 43 44 44 45 44 44 45 45 45 46 47 48 49 49 49 50
29 33 34 34 33 34 34 34 37 40 41 41 42 42 43 43 43 43 43 43 43 43 43 44 46 48 49
30 30 32 32 32 30 29 32 31 36 38 38 39 40 41 41 41 41 41 42 42 43 43 44 44 45 47
28 28 28 28 27 29 28 29 29 30 30 32 32 32 33 37 37 38 39 40 40 41 42 42 42 43 45
26 26 26 27 28 28 26 25 22 32 29 28 31 30 31 32 36 38 39 40 41 40 40 41 42 43 43
27 26 26 28 28 26 25 25 25 29 29 24 29 27 30 32 36 37 38 39 40 40 41 41 41 42 43
31 30 31 32 32 30 27 26 27 29 30 21 26 25 29 30 35 36 37 38 39 40 41 41 41 41 41
36 36 36 36 34 29 24 22 21 24 28 24 24 24 26 27 30 35 37 38 39 40 40 41 41 41 40
28 29 31 30 34 30 25 21 21 20 26 22 23 24 22 28 28 30 30 35 36 37 37 38 39 36 34
26 27 28 29 29 29 27 24 21 21 27 26 23 23 23 23 27 29 30 30 29 30 33 35 36 36 32
24 25 24 24 25 26 27 26 26 25 26 26 23 23 23 22 22 27 28 28 28 27 29 33 36 37 38
23 22 23 24 25 25 26 27 27 27 28 27 25 25 25 23 22 23 25 27 28 28 31 32 32 32 31
22 23 24 23 23 24 23 23 23 24 29 30 29 27 25 25 24 22 26 24 29 32 33 33 34 34 33
21 21 21 22 22 24 23 23 21 22 24 28 30 29 28 26 23 26 27 30 32 32 33 32 34 34 34
21 20 19 20 20 23 23 22 21 23 24 26 26 25 28 28 30 26 30 31 33 33 33 31 32 35 36
19 19 21 20 21 21 22 22 23 24 26 26 25 23 22 22 28 35 29 32 32 33 33 32 31 33 38

GFSFLT2_sfc_temp_030.txt.gz
Temp
33 35 34 34 36 37 38 38 38 42 42 44 45 45 46 46 45 45 46 46 47 48 48 49 50 50 51
30 32 33 34 35 34 36 38 36 39 42 43 44 44 44 44 44 44 44 45 45 46 47 48 49 49 50
29 32 33 34 32 32 33 34 36 39 41 41 42 42 42 42 42 43 43 43 43 43 44 45 46 46 47
30 30 30 31 31 28 28 31 31 35 37 38 39 40 40 41 41 41 41 41 42 43 43 43 44 45 46
28 27 27 27 26 28 27 29 29 31 31 32 32 32 33 36 37 38 38 39 40 41 41 42 42 42 44
26 26 26 26 28 27 26 25 22 32 29 28 31 30 31 32 36 37 39 40 40 41 42 41 42 42 43
26 26 26 28 27 26 26 25 25 29 29 24 29 27 31 33 36 37 38 39 39 40 40 40 41 42 42
30 30 30 32 31 30 27 27 28 29 30 21 27 25 29 30 35 36 38 38 39 39 39 40 40 40 41
36 36 36 36 34 30 24 22 21 24 28 24 24 24 26 27 30 35 37 39 39 39 40 41 41 41 40
28 29 30 29 34 29 26 21 20 20 26 23 23 24 21 27 27 30 30 35 37 38 38 39 39 36 34
25 26 27 27 27 27 27 23 21 20 27 26 23 23 22 22 26 29 30 30 30 31 34 35 35 35 32
24 24 23 23 24 25 25 25 26 24 26 26 23 23 22 21 22 27 29 30 30 29 29 33 35 37 37
22 21 22 23 23 24 24 25 26 27 27 27 25 25 25 23 23 25 27 29 30 28 30 31 32 33 32
21 22 22 22 21 23 22 22 22 24 29 29 29 28 26 26 26 25 28 26 30 33 34 34 35 34 33
21 20 21 21 20 23 22 22 20 21 23 28 31 30 29 27 25 28 28 31 33 33 33 32 34 34 33
20 20 19 19 20 21 21 20 21 22 24 27 27 26 28 27 32 27 31 31 33 33 33 32 32 35 34
19 18 20 19 19 19 19 20 21 23 26 26 25 24 23 20 26 36 29 32 32 32 33 32 31 35 34

GFSFLT2_sfc_temp_033.txt.gz
Temp
40 41 40 40 42 43 42 42 43 43 44 44 44 44 45 45 45 46 46 46 47 48 48 49 49 49 50
35 37 39 40 40 39 40 42 41 42 42 42 43 43 44 44 44 45 45 45 45 45 46 47 48 48 50
34 38 38 39 37 38 39 39 40 40 41 41 41 42 42 43 43 43 43 43 43 44 44 45 45 46 47
34 32 35 37 37 35 34 37 36 39 39 39 40 40 41 41 41 41 41 41 42 42 43 43 43 44 46
31 32 32 33 32 34 32 33 34 36 37 37 38 38 38 39 39 38 39 39 40 41 42 42 42 43 44
30 31 32 32 34 32 29 28 26 37 35 33 37 36 38 38 38 38 39 40 40 41 41 41 42 42 43
32 31 31 33 30 29 29 29 28 34 32 29 36 34 37 38 37 38 38 39 40 40 40 41 41 42 42
35 35 34 34 35 33 31 30 31 34 34 25 33 32 35 36 37 37 38 38 39 40 40 41 41 41 42
37 37 36 36 35 32 28 25 24 29 33 29 30 30 31 33 37 37 38 39 39 39 39 39 39 40 40
33 33 33 33 34 32 28 23 23 22 32 26 27 28 25 33 34 35 36 37 38 38 38 38 38 36 35
30 30 31 31 31 31 29 25 23 23 30 28 26 27 26 26 31 33 34 35 35 35 37 38 38 37 33
27 27 27 27 27 28 28 27 28 25 28 27 25 25 24 25 26 32 34 34 34 33 34 37 38 39 39
25 25 26 26 26 26 27 27 27 28 29 29 27 27 27 26 27 30 31 33 34 33 34 34 33 34 32
24 26 26 25 25 26 24 25 24 26 30 31 30 30 29 30 29 29 31 29 33 34 34 34 35 35 34
24 23 24 24 24 25 24 24 22 23 25 30 33 33 32 30 28 32 32 32 33 33 33 33 35 35 35
23 23 22 21 22 24 24 22 22 24 25 28 30 29 31 34 38 31 32 32 33 33 34 32 33 34 38
21 21 22 22 22 21 22 23 23 24 27 30 28 28 25 25 34 37 30 32 32 32 33 32 31 34 36

GFSFLT2_sfc_temp_036.txt.gz
Temp
44 46 44 44 46 47 46 45 47 45 45 45 45 45 45 45 46 46 46 46 47 48 48 49 49 50 51
40 41 42 44 44 41 45 46 45 45 44 44 44 44 44 44 44 45 45 45 45 46 46 47 47 48 49
37 42 43 42 41 42 43 43 45 44 44 44 43 43 43 44 44 44 44 44 44 44 45 45 46 46 47
38 37 37 41 42 40 38 41 40 43 43 42 43 43 43 43 43 42 42 42 43 43 43 44 44 44 46
35 34 36 38 37 38 37 38 38 39 40 41 42 42 42 42 42 42 42 42 42 42 42 42 43 43 44
33 34 35 37 38 35 33 31 29 40 38 36 41 39 41 42 41 42 41 41 41 42 42 42 42 43 43
34 35 35 36 33 31 32 32 31 37 35 32 39 38 41 42 40 41 41 41 41 41 41 41 42 42 43
38 37 37 37 36 35 33 32 34 37 37 28 36 35 39 40 39 40 40 41 41 41 41 41 41 41 42
39 39 39 39 37 34 30 28 27 31 36 32 33 32 34 35 39 41 41 41 41 41 40 40 40 40 39
37 38 38 37 37 36 32 26 26 25 34 29 29 30 26 35 37 38 40 40 41 41 42 40 39 37 36
35 35 35 35 36 35 33 28 25 25 32 30 27 28 27 28 33 36 37 38 39 39 40 40 40 39 35
31 30 30 31 31 31 31 30 30 27 30 28 26 26 26 26 27 34 35 36 36 35 35 37 39 40 41
27 28 29 30 29 29 30 31 30 30 31 30 29 29 28 26 27 31 32 34 36 35 35 34 34 35 33
27 29 30 29 28 30 27 27 26 28 32 32 32 30 29 31 30 29 33 30 35 35 34 35 36 36 36
27 26 27 28 27 28 27 27 25 25 27 32 33 33 33 31 29 33 34 34 34 34 33 33 35 36 36
26 26 25 25 25 27 28 25 24 26 27 30 31 31 32 35 39 34 34 33 34 34 34 32 33 35 38
25 25 25 26 25 25 26 26 26 27 28 31 30 29 26 25 35 40 32 33 33 33 35 32 32 34 36

GFSFLT2_sfc_temp_039.txt.gz
Temp
43 45 43 43 44 46 46 44 44 47 47 47 47 47 47 47 47 47 47 48 48 49 49 49 50 50 50
40 40 40 43 43 42 43 46 44 46 47 46 46 46 46 46 46 46 46 46 46 47 48 48 48 49 49
36 40 40 41 39 40 41 42 45 45 46 45 45 45 45 46 46 46 46 46 46 46 46 46 47 47 48
34 34 36 38 38 37 36 39 38 42 43 43 44 44 45 45 44 44 44 44 45 45 45 45 45 45 46
32 32 33 34 34 36 34 35 35 37 36 37 39 38 39 42 42 43 43 44 44 44 44 44 44 44 44
31 31 32 34 35 33 30 29 27 37 34 33 36 35 37 38 43 43 43 43 43 44 44 44 44 44 44
33 33 33 34 31 29 30 30 29 33 33 29 35 33 37 39 41 42 42 42 43 43 43 43 43 43 44
37 36 35 36 33 32 32 30 31 33 35 26 32 31 35 36 40 40 41 42 43 44 44 44 44 43 43
40 40 40 41 39 35 28 27 25 28 32 28 29 29 31 31 35 41 42 42 42 43 43 44 43 43 41
35 36 38 37 39 35 31 26 25 23 30 27 26 27 23 31 32 33 35 39 41 41 43 43 43 38 37
33 33 33 33 33 34 32 28 25 24 30 28 25 25 24 24 29 31 32 33 34 35 40 41 42 40 35
30 29 29 29 30 30 30 29 29 27 29 29 25 24 23 23 24 29 31 33 33 33 34 38 41 41 41
27 27 28 29 29 29 30 30 30 29 29 29 27 27 26 25 25 27 30 32 33 33 34 34 35 35 34
26 28 28 27 26 28 26 26 25 26 29 29 30 30 27 28 28 28 31 28 33 34 35 34 36 37 36
26 25 25 25 25 26 26 25 24 24 25 28 31 31 31 30 28 29 30 31 34 34 33 32 34 36 37
25 24 24 23 24 25 26 24 23 24 25 28 29 29 30 33 37 31 31 31 33 34 33 31 32 35 38
24 23 23 24 24 23 24 24 24 25 26 28 28 27 25 24 32 39 30 30 31 32 34 33 31 34 36

GFSFLT2_sfc_temp_042.txt.gz
Temp
37 38 34 35 40 40 41 41 42 46 47 48 48 48 48 48 48 48 48 48 49 49 50 50 51 50 51
35 35 33 36 36 37 40 43 41 45 47 47 47 47 47 47 47 47 47 48 48 48 48 49 50 49 50
31 34 35 35 35 36 36 38 41 44 45 45 45 45 45 46 46 47 46 46 46 47 47 47 48 48 48
30 30 32 33 34 32 32 35 34 39 40 41 42 43 44 44 44 43 43 44 45 46 46 46 46 46 47
30 31 32 31 30 32 31 31 32 33 33 34 35 35 36 39 40 41 42 44 45 45 45 46 46 46 46
30 29 29 30 31 30 28 26 25 34 28 31 33 32 34 35 40 42 43 43 44 44 45 45 45 45 46
31 30 30 32 27 27 28 28 28 31 30 27 32 30 34 36 39 40 42 42 43 44 44 45 45 45 45
34 33 33 34 34 32 31 29 30 31 31 24 30 29 32 33 38 39 40 41 43 43 44 44 44 44 45
39 39 40 40 39 34 27 25 25 27 30 27 27 26 28 29 32 38 40 41 40 41 42 43 43 44 43
32 32 34 31 37 32 29 24 23 23 27 24 25 25 22 25 26 31 31 36 38 39 41 41 41 39 38
29 29 30 29 30 30 31 27 24 23 29 28 24 24 24 22 26 28 30 30 31 33 37 39 40 40 36
27 26 26 26 27 28 29 28 28 27 28 28 25 24 23 22 22 28 30 30 30 30 32 36 39 41 42
24 24 25 26 26 26 26 26 26 27 29 28 26 25 25 23 23 25 27 29 31 30 31 33 34 36 33
24 25 26 25 24 25 23 24 23 24 28 28 26 27 25 26 26 26 29 26 31 32 33 34 35 36 35
24 24 24 24 23 24 24 23 22 23 24 27 30 30 29 27 25 27 28 29 31 31 32 31 33 35 35
24 23 22 22 22 23 24 22 21 23 24 26 26 26 27 29 35 29 29 29 30 31 31 29 31 35 37
22 22 22 22 24 21 22 22 22 23 23 25 26 25 23 22 31 39 29 29 30 30 32 32 30 33 35

GFSFLT2_sfc_temp_045.txt.gz
Temp
32 34 32 33 36 37 38 38 39 45 46 47 47 48 48 48 48 48 48 49 49 50 50 50 50 51 51
32 31 31 32 34 34 37 40 39 43 45 46 46 46 46 46 46 46 47 47 47 48 48 49 50 49 50
30 33 32 33 32 33 34 35 38 42 43 43 44 44 44 45 45 45 45 45 45 46 46 47 48 49 49
29 28 30 33 32 30 30 33 33 38 39 40 41 42 42 43 42 42 42 43 44 45 45 45 46 46 47
27 27 30 30 28 30 29 31 32 33 32 32 32 34 34 38 38 40 40 43 44 44 45 45 45 45 46
28 28 29 28 30 30 28 26 25 33 31 30 33 31 32 33 38 40 41 41 43 43 43 44 45 45 45
29 28 28 30 28 26 27 27 28 31 30 27 31 29 32 35 38 39 40 41 41 43 43 44 44 45 45
32 32 31 33 34 32 31 29 29 30 30 24 29 28 31 31 37 38 39 40 41 42 42 42 43 43 44
39 39 39 39 38 33 26 24 23 26 30 26 26 25 27 28 31 36 38 39 39 40 40 41 42 42 41
29 31 33 30 36 30 27 22 22 22 27 23 24 24 22 23 26 28 29 34 36 38 39 40 40 37 36
28 28 29 28 29 29 28 26 23 22 29 28 24 24 23 23 26 27 28 29 29 31 36 37 38 38 35
26 25 25 25 26 26 27 26 26 25 27 26 23 23 23 21 21 26 27 28 28 27 28 33 37 39 40
23 23 24 25 25 25 25 25 24 26 27 27 25 24 23 21 21 23 25 27 29 29 27 30 31 33 32
23 24 25 24 23 24 22 23 22 23 27 26 25 25 23 24 24 24 27 25 29 30 31 32 33 34 34
22 23 23 23 23 24 23 21 20 21 21 25 26 26 26 25 23 25 26 27 29 31 31 29 31 33 33
22 22 21 21 21 23 24 22 20 21 21 23 23 23 25 27 32 26 27 28 29 30 31 28 29 32 35
21 21 21 21 23 21 21 21 21 21 22 23 23 24 21 20 30 38 29 29 29 29 30 30 29 32 35

GFSFLT2_sfc_temp_048.txt.gz
Temp
30 32 30 31 34 34 36 36 37 43 44 45 46 46 47 47 48 48 48 48 49 50 50 50 51 52 52
28 28 28 30 30 31 35 38 37 40 43 44 45 45 45 46 46 46 46 47 47 48 48 49 50 49 50
28 28 28 29 30 31 31 33 36 40 42 42 43 43 44 44 45 45 44 44 45 45 46 46 47 48 49
28 25 26 29 30 28 29 32 32 36 38 39 41 41 42 43 42 42 41 42 43 44 45 45 46 46 48
26 21 25 28 28 29 28 29 31 32 31 31 31 30 33 37 38 39 39 41 43 44 44 44 45 45 46
19 26 27 27 29 27 27 25 24 32 28 31 32 31 32 33 37 39 41 42 42 43 43 43 44 44 45
29 27 26 28 28 25 26 26 27 30 29 26 30 28 32 34 38 39 40 40 41 42 43 43 43 44 44
30 30 30 32 33 32 30 27 28 29 29 22 28 27 30 31 36 37 38 39 40 41 42 42 42 43 43
39 39 39 39 37 31 24 23 22 25 29 25 24 25 27 28 31 36 38 39 40 40 40 40 41 41 40
28 30 32 30 35 30 25 21 21 21 24 20 24 24 21 23 26 27 30 34 36 37 38 39 39 37 35
27 27 28 27 28 28 27 23 22 22 28 27 23 23 23 22 23 27 28 29 28 29 34 36 37 37 33
25 24 24 24 25 26 26 26 26 24 26 26 22 21 21 20 20 25 26 27 27 26 26 32 35 37 39
22 22 23 23 24 24 25 24 23 24 26 25 24 23 22 21 20 22 24 26 28 27 27 26 29 32 30
22 23 24 24 23 23 22 22 21 22 26 26 24 22 21 22 23 22 25 23 27 28 28 29 32 33 33
21 22 23 22 22 23 21 21 20 20 21 24 25 24 24 23 22 24 25 25 26 27 28 28 30 31 32
22 21 20 20 20 22 23 21 20 20 20 22 22 22 23 26 30 23 25 26 28 29 30 28 28 32 34
19 19 20 20 23 21 21 21 20 21 21 22 22 23 20 19 29 37 28 29 29 29 29 29 28 31 34

GFSFLT2_sfc_temp_051.txt.gz
Temp
29 31 29 30 33 32 34 33 34 42 43 44 45 46 47 47 47 48 48 48 49 49 50 50 52 51 52
27 28 28 30 30 29 34 37 35 39 42 43 44 44 45 45 46 46 46 46 47 48 48 48 49 50 50
27 27 27 28 27 29 29 31 34 39 41 41 42 43 43 44 45 45 45 45 45 45 46 47 48 48 48
28 25 26 27 26 27 28 30 30 35 37 39 40 41 42 42 42 42 41 42 43 44 44 45 46 46 47
26 22 24 26 27 29 27 29 29 30 30 29 30 31 32 37 38 39 39 41 42 43 44 44 45 45 45
20 24 26 26 28 27 26 24 24 29 26 29 31 30 32 32 37 39 40 41 42 43 43 43 43 43 44
28 26 26 28 28 26 26 25 27 30 28 25 29 28 31 33 37 39 40 40 41 42 42 42 43 43 44
29 30 30 31 31 30 29 27 28 29 27 21 27 27 30 31 36 38 39 40 40 41 42 42 43 43 43
39 39 39 39 37 31 24 22 22 24 28 24 23 25 27 28 31 36 38 39 40 40 40 40 41 41 40
28 29 32 29 35 29 23 19 22 21 24 21 23 22 21 23 22 27 30 34 36 37 38 39 39 36 34
26 26 26 26 27 27 27 20 22 21 28 27 23 22 22 21 22 26 27 28 28 29 34 35 36 36 32
24 23 23 23 24 25 25 25 25 24 26 26 22 19 20 19 19 25 26 26 26 25 26 30 34 36 38
21 22 22 23 23 23 23 23 22 24 25 24 23 23 22 20 20 22 23 25 26 25 26 25 25 27 26
21 22 23 22 22 22 21 21 21 21 25 24 23 23 21 22 22 21 23 21 24 26 27 27 28 30 30
21 22 22 22 21 22 20 20 19 19 21 24 24 24 23 22 20 22 23 23 25 26 26 26 28 31 32
20 20 19 19 19 21 22 20 19 20 20 22 22 22 23 25 28 22 23 24 26 27 29 27 28 32 34
18 18 19 19 22 20 20 20 20 21 22 23 22 22 21 19 29 36 27 27 28 28 29 29 28 30 32

GFSFLT2_sfc_temp_054.txt.gz
Temp
30 33 31 30 33 32 33 31 32 41 43 44 44 45 46 47 47 48 48 48 49 50 50 51 51 52 52
29 28 28 30 29 28 34 37 35 39 42 43 44 44 44 45 46 46 46 47 47 48 48 49 49 50 51
27 28 27 28 28 28 28 30 33 38 41 41 42 42 43 44 45 45 45 45 45 46 46 47 47 48 49
27 24 26 28 26 26 27 29 30 34 37 38 40 41 42 42 42 42 41 42 43 44 44 45 45 46 48
25 23 24 26 27 29 27 28 28 29 29 29 29 30 32 37 37 39 39 40 42 43 44 45 45 45 45
19 25 25 26 25 26 26 25 25 29 25 29 31 30 31 31 36 39 40 41 42 43 43 43 43 43 44
27 26 25 27 25 24 26 26 26 30 28 25 29 28 31 33 37 39 40 41 41 42 42 43 43 44 44
28 29 28 30 29 29 29 27 27 29 27 21 28 26 30 30 36 38 39 40 41 41 42 43 42 42 43
38 38 38 38 37 30 23 22 21 24 27 24 23 24 27 28 31 36 38 40 40 40 40 40 41 41 40
27 28 30 28 34 28 22 17 20 20 23 19 18 22 18 23 23 28 31 35 36 37 38 39 39 36 35
25 25 26 25 26 26 26 17 21 20 27 27 18 22 22 21 22 26 27 28 28 29 33 35 36 36 31
23 22 22 23 23 24 25 24 24 23 25 25 21 17 20 19 19 25 25 26 26 25 25 30 33 35 37
20 21 20 21 22 22 22 22 21 22 24 23 22 23 21 19 19 21 22 25 26 25 25 25 25 26 25
20 21 22 17 21 21 19 20 19 20 23 22 21 21 20 21 21 21 23 21 25 25 26 27 28 29 29
19 19 20 21 20 21 19 19 18 19 20 23 25 25 24 23 21 23 23 23 24 24 25 25 28 29 29
19 18 18 18 18 21 22 20 18 19 20 22 22 23 25 27 28 22 23 23 25 26 27 25 27 32 33
16 16 17 18 22 20 19 20 21 22 22 23 24 24 21 20 30 37 26 27 28 28 29 28 27 30 32

GFSFLT2_sfc_temp_057.txt.gz
Temp
35 38 39 41 43 44 43 43 44 43 44 44 44 45 46 47 47 48 49 49 49 50 50 51 51 52 52
37 37 39 41 41 40 41 42 42 42 42 43 44 44 44 45 45 46 47 47 48 48 48 49 50 50 51
35 39 38 38 39 39 39 39 40 40 41 42 42 42 43 44 45 45 45 45 46 46 46 47 48 49 50
35 36 36 38 36 34 35 39 38 40 40 40 41 41 42 42 42 42 42 42 43 44 44 45 46 46 47
34 34 34 35 35 37 34 35 36 38 37 39 39 39 40 40 40 40 40 41 42 43 44 45 45 45 46
33 32 34 35 36 34 33 30 28 40 36 36 39 37 39 40 39 40 41 42 42 43 44 44 44 44 45
34 34 34 35 33 30 32 31 30 36 35 32 38 35 39 39 39 39 40 41 41 42 43 43 43 44 44
37 37 37 36 35 33 34 33 34 36 36 27 36 35 38 38 38 38 39 40 41 42 42 43 43 43 43
38 38 38 38 37 35 31 29 27 31 35 30 32 32 34 35 38 38 39 40 40 40 40 41 41 42 41
34 35 34 34 34 34 31 25 24 25 33 28 30 29 26 35 35 36 36 37 37 37 38 39 39 37 36
32 32 32 33 33 33 31 27 24 24 32 29 27 27 25 26 31 33 34 34 35 35 35 35 36 36 33
29 29 29 29 29 30 29 29 29 26 29 28 23 24 23 23 24 31 33 33 32 31 31 33 34 35 37
26 27 28 28 26 27 28 28 26 26 27 27 25 24 24 23 23 25 27 30 32 30 31 31 31 32 30
26 27 27 26 26 28 25 26 24 26 30 28 26 25 23 25 25 24 28 25 30 31 31 32 33 34 33
24 24 25 25 25 27 25 24 23 24 26 29 31 29 28 26 24 27 28 28 31 30 30 28 31 33 34
23 23 22 22 23 25 27 25 23 24 25 28 29 27 29 31 31 26 29 29 31 31 30 27 29 35 37
21 21 22 22 24 25 26 25 25 26 28 29 28 27 24 24 33 39 30 32 32 31 32 32 30 33 36

GFSFLT2_sfc_temp_060.txt.gz
Temp
34 35 34 36 40 46 46 46 48 47 47 46 46 45 46 47 47 48 49 49 50 51 51 51 52 52 53
32 33 35 39 40 40 43 46 46 46 45 45 45 45 45 45 46 46 47 48 48 49 49 50 51 51 52
35 38 37 38 38 43 44 44 46 44 45 44 45 44 44 45 45 45 45 46 46 46 47 47 48 49 50
36 37 40 42 42 39 40 43 42 45 44 44 43 43 43 43 44 43 43 43 44 44 45 45 46 47 48
37 38 38 40 39 41 38 40 41 42 42 44 44 44 45 45 44 43 43 43 43 44 44 45 45 46 46
37 37 39 40 41 39 37 33 31 43 41 40 43 42 44 45 44 43 43 43 43 43 44 44 45 45 45
37 38 38 40 36 33 34 33 32 39 40 35 42 40 44 45 44 43 42 42 42 42 43 43 44 45 45
40 40 40 40 38 36 36 37 38 40 42 32 40 38 42 43 43 42 42 42 42 42 42 43 43 43 44
38 39 39 39 39 37 33 33 31 35 39 35 36 36 38 38 41 42 41 41 41 41 41 41 41 42 41
39 39 39 39 37 37 35 29 28 28 38 31 33 32 29 37 38 40 40 40 40 40 40 40 40 38 37
37 38 38 38 38 38 37 31 27 27 36 32 30 30 28 28 34 37 37 37 38 38 38 38 38 37 33
34 34 34 34 35 34 34 33 33 30 32 31 27 27 26 25 27 34 36 36 35 33 34 37 37 38 38
32 32 33 33 31 31 33 32 31 31 31 30 28 27 26 24 25 28 29 33 34 33 34 34 34 35 32
31 32 32 31 31 32 29 30 28 30 34 32 31 28 25 27 27 26 30 27 33 33 34 34 34 35 34
30 29 29 30 30 32 30 29 27 27 29 33 34 33 31 29 26 28 29 31 33 33 32 31 33 35 36
28 28 27 27 28 30 31 30 28 28 28 31 32 30 32 34 35 29 31 31 33 34 33 31 32 36 38
27 26 26 26 27 28 29 30 30 30 31 32 31 29 27 26 35 40 32 33 33 32 33 33 32 34 38

GFSFLT2_sfc_temp_063.txt.gz
Temp
36 35 35 35 38 41 43 44 45 47 48 49 48 48 47 47 48 48 49 50 50 51 52 53 53 53 53
33 33 34 36 39 40 42 45 44 47 47 47 46 46 46 47 47 47 47 48 48 49 50 51 51 52 52
34 37 37 38 37 39 41 43 46 47 47 47 47 47 46 46 46 46 46 46 47 47 47 48 48 49 50
35 35 36 38 39 38 37 40 40 45 45 45 46 46 46 46 46 46 45 45 45 45 45 46 46 47 48
35 36 36 37 36 38 35 37 38 39 38 39 39 40 42 45 45 46 46 46 45 45 46 46 46 46 47
35 34 36 37 37 35 32 31 30 38 35 35 39 38 40 41 45 46 45 45 45 45 45 45 45 46 46
35 35 35 36 32 30 31 32 32 35 36 33 38 37 39 43 45 45 45 44 44 44 44 44 44 45 45
37 37 37 38 37 35 33 34 35 36 37 30 36 35 38 39 43 43 43 43 43 43 43 43 43 44 44
40 40 40 40 39 35 30 29 29 31 35 31 31 32 34 34 36 42 43 43 43 43 43 43 43 43 42
35 37 39 38 40 35 31 28 28 26 32 27 28 29 25 30 31 34 35 40 41 42 42 42 42 38 36
34 34 35 35 34 35 34 30 28 26 32 31 25 27 27 27 29 30 32 33 34 35 39 39 40 39 34
31 31 31 31 33 34 33 32 32 30 31 30 26 26 25 24 24 28 30 31 31 30 31 36 38 39 39
29 29 32 32 32 31 32 32 32 32 32 30 28 27 26 24 23 25 27 28 30 29 30 32 32 33 31
28 29 30 31 30 31 29 29 28 28 32 33 32 29 26 26 26 25 28 25 28 29 31 32 33 34 33
29 29 29 29 29 30 29 28 27 28 29 32 33 33 31 28 26 28 29 29 30 31 31 30 33 34 34
28 27 26 26 26 27 28 27 27 28 29 30 31 30 30 31 35 28 30 30 32 33 33 30 30 34 36
26 26 26 26 26 25 27 27 28 29 29 31 30 28 25 24 31 40 30 31 30 30 31 31 30 32 35

GFSFLT2_sfc_temp_066.txt.gz
Temp
35 36 35 36 39 39 41 40 40 47 48 49 49 49 49 48 48 49 49 50 50 51 52 53 54 54 54
33 33 34 35 37 37 40 43 40 46 48 48 48 48 48 48 48 48 48 48 49 49 50 51 51 52 53
33 35 35 36 35 36 35 35 41 46 47 48 47 47 47 47 47 47 47 47 47 47 48 48 49 49 50
34 34 35 34 32 31 30 33 34 41 42 44 45 46 47 47 47 46 46 47 47 47 47 47 47 47 49
31 29 30 31 31 32 30 30 31 32 32 32 33 34 37 42 43 45 45 47 47 47 47 47 47 47 48
27 29 31 31 32 30 27 24 21 31 29 31 32 32 33 34 43 45 46 46 46 46 46 46 46 46 47
31 30 29 31 27 24 27 23 25 30 30 29 30 31 32 39 43 44 45 45 45 45 45 45 45 46 46
31 31 32 33 32 29 27 28 29 30 30 24 28 30 33 32 41 42 43 44 44 45 45 44 44 44 45
41 40 40 40 38 28 23 21 22 25 29 24 25 25 31 32 32 40 42 42 42 42 43 43 44 44 42
30 32 35 33 40 31 24 15 26 23 26 21 22 23 22 25 25 32 29 36 39 40 40 41 42 39 37
27 27 28 28 29 29 29 20 25 27 32 30 22 28 26 25 24 25 29 28 29 31 35 37 38 39 34
27 24 24 24 30 32 31 31 31 29 31 30 26 26 25 24 24 25 27 28 26 25 27 32 36 38 40
22 26 29 30 31 30 30 31 30 31 32 31 29 28 27 25 24 26 28 27 28 25 22 27 28 30 29
21 22 23 29 29 29 28 28 27 28 28 32 30 29 28 28 27 25 27 25 29 29 29 30 30 31 32
26 28 28 28 28 28 27 27 25 25 27 31 32 32 31 28 27 29 29 28 29 30 31 29 31 32 33
26 25 25 25 25 26 26 25 24 24 27 29 30 29 30 30 34 29 29 29 29 29 29 28 29 32 34
25 25 25 25 26 24 25 25 25 25 27 29 29 27 24 22 29 38 29 30 30 29 29 28 29 32 34

GFSFLT2_sfc_temp_069.txt.gz
Temp
36 35 35 37 38 40 41 41 42 46 48 49 49 49 50 49 49 49 50 50 51 51 52 53 54 54 53
32 33 35 36 38 37 40 43 41 45 47 48 49 49 49 49 48 48 48 48 49 50 50 50 51 52 53
33 35 35 36 35 37 37 36 40 43 47 47 47 47 47 47 48 48 48 48 48 48 48 49 49 50 50
34 34 35 35 32 30 31 32 32 39 41 43 44 44 45 46 46 45 45 46 47 47 48 48 48 48 49
33 31 30 30 29 31 30 29 29 31 31 31 32 32 34 40 41 43 44 46 47 47 48 48 48 48 48
27 29 29 29 30 28 25 24 22 30 29 30 32 31 32 32 40 44 45 45 46 46 46 47 47 47 47
30 28 29 30 25 23 27 23 24 29 28 26 29 28 30 36 41 43 43 44 44 45 45 46 46 46 46
31 30 30 31 30 26 25 26 27 28 28 19 26 27 29 30 39 41 42 43 43 43 43 43 44 44 45
40 40 40 40 38 26 22 19 20 25 27 23 24 25 26 27 29 39 40 40 40 40 41 41 42 43 41
29 30 32 31 39 30 24 14 15 16 25 20 21 27 20 24 25 30 28 35 37 38 38 38 39 37 36
26 26 27 27 28 28 28 16 15 27 31 29 22 27 26 26 27 24 26 27 28 30 34 36 37 37 33
26 24 23 24 29 30 31 31 31 29 31 29 26 25 24 24 24 26 25 29 27 24 24 31 36 38 39
22 21 27 24 25 30 31 30 30 30 31 31 29 28 27 25 25 27 27 23 26 26 24 25 26 27 26
20 21 23 29 27 28 27 27 27 27 27 24 29 29 26 27 27 27 29 26 29 30 29 28 30 30 29
24 27 27 27 27 27 26 26 24 24 26 23 31 32 31 29 26 28 29 29 29 29 29 29 30 31 31
26 25 24 24 24 25 26 24 23 24 25 27 27 28 27 29 33 28 29 27 29 28 28 27 28 31 32
25 25 25 25 25 24 24 24 24 24 25 26 24 25 23 21 29 37 27 27 29 28 30 28 27 30 32

GFSFLT2_sfc_temp_072.txt.gz
Temp
36 36 36 37 39 40 40 40 41 45 47 48 49 50 50 50 50 50 50 50 51 52 53 53 54 54 54
34 34 35 36 38 37 40 42 41 43 45 48 49 49 49 49 49 49 49 49 49 50 51 51 52 52 53
33 34 34 36 35 37 37 38 40 43 46 47 48 47 47 47 48 48 48 48 48 48 48 49 49 50 51
33 33 35 35 35 33 33 32 33 39 41 42 44 45 45 45 46 46 45 46 46 47 47 48 48 49 49
32 32 33 32 30 30 29 29 30 30 30 31 31 31 32 39 40 42 43 45 46 47 47 48 48 48 49
30 28 27 27 27 27 23 22 21 28 28 28 30 29 30 30 39 42 44 45 45 46 46 46 47 47 47
28 27 27 28 23 22 26 21 22 27 27 25 28 28 29 34 40 42 43 43 44 44 44 45 45 45 46
29 28 28 29 29 26 24 25 27 28 27 19 25 26 28 29 37 40 42 42 42 42 42 42 43 43 44
39 39 40 40 35 26 23 19 20 25 26 23 23 24 25 26 29 38 39 39 40 40 40 40 40 41 40
28 30 31 30 37 29 24 12 14 16 25 19 20 24 19 24 24 29 28 35 38 39 39 39 39 35 33
26 25 26 27 27 28 27 16 13 24 31 29 25 27 26 24 23 25 24 28 28 30 35 36 37 37 32
25 23 23 23 29 30 31 31 30 29 31 30 26 25 24 24 23 22 23 26 24 23 21 30 35 37 38
21 20 20 19 21 29 30 31 30 30 31 30 29 28 27 25 23 26 26 23 26 24 21 23 24 26 26
19 20 22 28 27 28 26 26 25 26 30 30 22 23 26 26 25 26 29 26 22 27 28 27 29 29 28
27 27 27 27 26 27 26 25 23 23 25 28 26 25 27 27 25 27 28 29 30 28 27 27 29 30 30
26 26 25 24 24 25 25 24 22 21 21 22 26 20 22 25 32 27 28 28 29 28 27 26 28 31 32
25 24 25 24 25 24 23 20 21 20 21 22 15 16 19 19 24 36 25 21 23 27 28 27 27 30 32

GFSFLT2_sfc_temp_075.txt.gz
Temp
36 36 37 39 40 40 42 41 41 45 47 48 48 48 49 50 50 51 51 51 52 52 53 54 54 55 55
34 34 35 37 38 38 40 42 40 42 44 45 45 46 48 49 50 49 49 49 50 50 51 51 52 53 53
34 34 34 34 35 37 37 37 39 40 44 45 47 48 48 48 48 48 48 48 48 48 48 49 50 50 51
34 33 34 34 35 33 32 34 35 39 40 41 43 44 45 45 45 45 46 46 46 47 47 48 48 49 50
33 32 32 32 31 31 30 28 28 28 29 30 30 31 32 38 40 42 43 44 45 46 47 48 48 48 49
25 26 25 25 26 26 22 21 21 27 26 27 28 28 29 30 39 42 43 45 45 45 46 46 47 47 47
26 25 25 27 21 20 25 20 22 26 27 24 27 27 29 33 38 41 42 43 44 44 45 44 44 45 45
28 28 28 28 28 24 24 25 26 27 26 18 25 26 27 28 37 40 42 41 41 42 42 42 42 43 44
38 39 39 39 35 26 28 18 20 24 26 23 22 23 25 25 29 38 39 40 40 40 41 41 41 41 40
28 29 30 30 36 28 23 12 14 16 24 19 20 22 17 23 24 28 28 36 39 39 40 40 40 37 32
25 25 26 26 27 27 26 15 11 20 27 28 20 26 24 22 23 24 23 27 27 29 35 37 37 36 29
25 22 22 22 27 31 31 30 30 28 30 28 25 25 24 24 21 22 20 24 23 23 21 31 35 37 38
20 19 19 18 19 27 30 30 29 30 31 30 28 28 26 25 24 26 27 21 27 22 20 21 24 23 25
19 20 21 28 27 28 25 26 25 25 28 30 29 27 23 23 25 25 27 25 22 25 25 27 27 28 27
26 27 27 27 26 26 25 25 23 18 16 20 28 27 24 24 23 26 27 27 28 30 26 26 28 29 29
26 26 25 24 24 24 25 23 22 16 15 14 15 23 17 23 30 24 27 27 26 26 26 26 26 29 31
25 24 24 24 25 22 21 16 19 16 15 14 9 14 17 17 23 35 24 24 19 24 27 27 26 28 30

GFSFLT2_sfc_temp_078.txt.gz
Temp
36 37 37 39 40 41 42 41 42 46 47 48 48 48 48 48 48 49 50 50 52 53 54 54 55 55 56
35 35 35 37 38 39 41 42 40 42 45 46 47 46 47 48 49 49 49 50 50 51 51 52 52 53 54
33 35 34 35 36 37 37 37 40 41 43 45 46 47 48 48 48 48 48 49 49 48 49 49 50 51 52
34 33 34 34 35 33 33 35 35 39 40 41 42 43 44 45 46 45 46 46 46 47 47 48 48 49 50
27 27 28 28 28 28 28 28 28 28 29 30 30 30 31 37 39 42 43 44 45 46 47 48 48 48 49
20 25 25 24 25 25 22 20 20 27 26 27 28 28 29 30 38 41 43 44 45 45 46 46 47 47 47
26 25 25 26 21 20 24 19 21 26 26 24 26 27 29 32 38 41 42 43 44 44 45 45 44 44 45
28 27 27 28 28 24 24 25 26 27 26 17 24 26 27 28 36 40 42 42 41 42 42 42 42 43 43
38 39 38 39 33 27 23 19 19 24 25 22 22 23 25 26 29 39 39 39 40 40 41 41 42 42 38
27 29 30 31 36 27 22 12 13 16 24 22 21 21 17 23 24 28 29 36 39 39 39 40 40 34 32
25 25 26 26 27 27 25 15 19 22 28 28 25 27 25 20 23 23 24 27 28 28 34 36 37 37 28
24 21 21 21 22 25 30 30 30 27 30 29 25 25 24 24 22 22 21 24 22 20 20 30 35 37 38
20 18 19 18 18 26 30 30 29 30 30 30 28 27 26 25 24 26 27 25 27 23 20 20 22 24 25
18 20 22 26 27 28 25 26 25 24 23 26 26 28 25 25 24 22 26 23 20 27 28 30 26 28 28
20 22 27 27 26 26 25 24 23 16 14 20 24 24 23 22 22 23 23 24 27 29 25 25 27 28 28
21 25 25 25 25 25 25 23 22 19 16 14 11 15 17 23 29 22 22 22 27 28 25 25 25 29 30
20 24 24 24 25 23 20 21 20 17 18 15 6 12 12 16 24 35 22 19 19 23 24 24 23 27 29

GFSFLT2_sfc_temp_081.txt.gz
Temp
40 41 41 41 42 43 44 43 43 48 49 49 49 49 49 48 48 49 49 49 50 51 53 54 55 55 55
38 38 38 39 40 41 42 44 42 45 46 47 47 47 47 48 48 49 49 50 50 51 52 52 53 53 53
37 39 37 38 38 39 40 41 43 43 44 45 46 47 48 48 48 49 49 49 49 49 49 49 50 50 51
39 38 38 39 41 40 40 41 40 42 42 42 43 43 44 45 46 46 46 46 47 47 47 48 48 49 50
38 38 38 38 37 38 38 39 39 39 41 42 42 43 43 42 42 43 44 45 46 46 47 48 48 49 49
35 36 35 36 37 37 36 36 36 38 38 39 39 40 41 42 39 41 43 44 45 46 46 47 47 47 47
36 35 35 36 33 32 34 34 35 37 36 36 38 38 40 40 38 41 42 43 44 45 45 46 46 45 45
37 37 37 37 37 35 35 34 36 36 36 32 36 37 39 40 37 39 42 43 42 42 42 43 43 43 44
38 38 38 39 37 36 34 32 32 33 35 33 34 33 35 36 39 40 40 39 40 41 41 42 42 42 43
35 35 35 36 36 35 33 30 30 30 34 31 32 32 30 35 36 39 40 38 39 39 40 40 40 41 41
34 34 34 34 35 35 33 30 29 29 35 32 30 32 30 30 34 36 36 37 37 37 36 37 37 39 38
32 31 31 31 32 33 33 34 33 31 33 32 29 29 28 28 28 34 35 35 34 32 33 34 35 37 39
30 29 30 30 29 31 32 32 32 32 33 32 31 30 29 27 27 30 30 33 34 32 33 33 33 35 33
30 30 31 30 31 32 29 30 29 30 32 30 30 30 28 29 29 28 30 26 32 32 33 33 34 37 36
29 29 30 30 30 31 29 28 26 27 27 30 30 30 29 27 25 28 28 29 30 31 31 29 32 35 36
29 29 28 28 28 29 28 27 26 26 26 27 26 26 27 29 30 27 29 29 30 30 30 27 28 34 37
28 28 28 27 27 27 27 26 25 26 26 26 24 22 21 21 30 35 28 29 30 29 31 30 29 32 35

GFSFLT2_sfc_temp_084.txt.gz
Temp
45 45 45 45 46 46 45 44 45 49 50 50 50 50 50 50 50 50 50 50 50 51 52 53 54 54 54
43 44 42 44 44 45 46 48 46 46 47 48 48 48 48 48 49 49 49 49 50 51 51 52 53 53 54
42 44 42 42 44 45 46 46 47 46 46 46 46 47 48 49 49 49 49 49 49 49 49 49 50 51 52
45 43 45 45 47 45 46 47 46 48 45 44 44 44 44 45 45 45 46 46 47 48 48 48 48 49 50
43 43 44 44 43 44 44 45 46 45 46 47 46 47 48 46 44 43 44 45 46 46 47 47 48 49 49
41 42 42 43 44 42 41 40 40 44 42 44 44 45 46 46 41 42 43 44 45 46 46 47 47 48 48
42 42 41 41 37 36 39 38 39 42 40 41 44 43 45 45 40 41 42 43 44 45 45 46 46 47 46
42 42 42 42 41 39 39 39 41 41 40 35 42 41 44 45 40 40 41 43 43 43 43 43 43 44 44
39 38 38 40 41 41 38 36 37 38 40 36 38 37 40 41 43 41 41 40 40 41 42 42 42 42 44
39 38 39 38 38 40 38 32 33 34 37 33 35 35 33 40 40 42 43 41 40 40 40 41 41 41 43
39 39 39 39 39 39 38 33 31 32 36 33 31 32 32 33 37 39 40 40 41 40 40 39 39 39 38
37 37 36 36 36 36 36 35 36 32 34 32 30 30 29 28 30 37 38 38 37 35 35 37 38 38 39
34 34 34 35 32 32 33 33 32 33 33 32 31 31 30 28 28 31 31 35 36 34 34 33 35 37 35
35 35 35 32 32 33 31 31 30 30 33 32 32 31 29 29 29 29 32 29 34 34 35 35 37 37 37
34 33 33 33 32 33 31 30 28 28 29 32 33 33 32 30 28 31 32 32 34 33 32 31 33 36 38
33 33 32 31 31 31 30 28 27 28 28 30 30 29 31 33 33 30 32 32 33 33 32 29 29 35 38
31 31 31 31 30 30 29 28 27 28 29 29 27 25 23 24 35 35 30 32 32 32 34 33 31 33 37

GFSFLT2_sfc_temp_087.txt.gz
Temp
45 45 44 45 46 47 46 45 45 49 50 50 51 51 51 51 51 52 51 51 51 52 53 54 54 55 54
43 43 43 45 45 45 46 49 47 47 48 49 49 49 49 49 49 50 50 50 50 51 51 52 53 53 54
41 44 42 42 43 45 45 45 48 48 48 48 47 47 48 49 49 49 49 49 49 49 49 49 50 51 52
44 41 43 44 44 42 42 44 42 48 46 45 45 45 46 46 46 45 45 46 47 48 48 48 48 48 50
40 40 40 40 38 40 38 39 40 39 39 41 40 41 42 45 45 44 44 45 46 46 47 47 48 48 49
37 38 38 38 39 36 35 33 33 39 36 37 39 38 39 40 42 42 43 44 45 46 46 47 48 47 48
38 37 37 37 33 32 34 33 33 36 35 33 37 36 38 43 41 42 42 43 44 45 45 45 46 47 47
39 38 38 38 37 35 35 34 35 36 35 29 36 34 37 38 41 41 42 43 43 43 43 43 44 44 44
39 39 39 40 39 36 32 31 31 32 34 30 32 31 34 34 36 41 41 41 41 41 42 43 42 42 40
34 35 37 37 39 35 33 28 29 30 32 28 30 29 26 32 33 34 35 42 41 41 41 41 42 36 34
35 35 35 35 34 34 33 30 30 30 34 29 30 30 31 29 29 31 33 33 33 33 40 41 41 39 29
33 32 32 32 32 32 32 32 34 30 33 32 26 29 28 27 27 29 29 30 29 31 34 36 39 39 41
30 30 31 30 29 28 32 33 30 32 32 26 26 29 28 27 27 28 29 31 33 30 33 32 32 34 29
31 31 31 30 30 32 30 30 28 29 33 32 25 23 27 28 28 27 30 27 28 27 30 33 33 32 32
30 30 30 30 30 32 30 29 26 27 28 31 32 31 30 28 26 27 27 27 29 32 31 30 31 31 31
30 29 28 28 27 30 29 27 26 26 27 28 29 28 28 30 32 25 26 27 26 32 31 28 28 30 32
29 28 28 28 28 25 25 28 26 27 27 28 27 24 21 20 28 36 26 24 30 30 30 28 27 30 31

GFSFLT2_sfc_temp_090.txt.gz
Temp
43 43 42 43 45 44 45 44 45 50 51 51 51 51 52 52 53 53 53 53 53 53 54 54 55 55 55
41 41 41 43 42 40 43 45 41 48 50 50 50 50 49 50 50 51 51 51 51 51 52 53 53 53 54
39 41 40 37 38 39 39 38 44 48 49 48 48 48 49 50 50 49 49 49 49 49 49 50 50 51 52
40 37 37 38 37 35 35 36 36 44 45 45 46 46 47 47 46 45 46 46 47 48 48 48 48 48 49
37 32 33 33 32 33 31 31 31 33 32 33 34 35 37 42 43 44 44 45 46 46 47 47 47 48 49
28 31 30 30 31 29 27 24 24 31 30 30 33 32 33 33 43 43 43 44 45 45 46 47 48 48 48
31 30 29 30 27 26 27 26 25 29 29 28 31 31 33 40 42 42 42 43 44 45 45 45 46 47 47
31 31 31 32 31 30 29 29 30 30 30 22 29 29 31 32 42 42 43 43 44 44 44 43 44 44 45
40 40 41 41 38 30 25 24 24 27 28 26 26 26 29 30 32 42 42 42 41 41 42 43 43 43 38
30 33 35 36 39 30 26 18 20 21 27 22 23 23 20 28 29 31 31 40 42 42 42 42 42 35 31
29 29 29 29 29 29 29 21 19 17 31 22 19 25 24 25 24 26 29 31 30 30 39 40 41 40 28
29 26 26 25 25 27 29 27 27 24 26 30 21 21 26 26 22 24 23 25 23 23 30 37 38 39 39
25 23 24 23 23 24 25 30 30 30 29 27 19 17 25 25 24 26 28 24 29 28 32 32 32 34 32
24 24 24 21 22 24 23 28 27 27 31 31 29 20 14 19 27 26 29 25 21 27 32 32 33 34 30
23 24 26 26 26 24 26 27 25 24 26 30 31 30 28 27 25 27 27 23 23 26 31 30 32 33 31
25 26 26 26 26 22 22 22 21 21 26 27 28 27 27 28 32 25 23 22 21 28 31 28 28 28 29
26 26 27 27 30 23 20 20 20 20 20 27 26 24 21 20 23 35 25 18 20 22 24 24 26 28 28

GFSFLT2_sfc_temp_093.txt.gz
Temp
42 43 42 43 45 43 45 44 45 50 51 51 51 52 52 52 53 53 54 54 54 55 55 55 55 55 55
40 40 41 43 41 39 42 44 41 49 50 50 50 50 50 50 51 51 51 51 52 52 53 53 54 54 55
39 41 39 36 37 38 38 37 43 48 49 48 48 49 50 50 50 49 49 50 50 50 50 50 50 51 52
40 38 35 37 36 35 34 35 34 41 43 45 45 47 47 47 46 46 46 47 48 48 48 48 48 48 49
37 31 32 33 33 32 31 30 30 30 31 32 32 32 35 43 43 44 44 45 46 46 47 47 47 48 48
28 31 31 31 31 29 27 23 24 30 29 30 31 30 32 32 43 43 43 44 45 45 46 46 47 48 48
32 31 30 31 29 26 27 25 24 29 28 27 29 29 31 37 43 43 43 43 44 44 45 45 46 47 47
33 31 31 31 31 30 29 28 28 29 28 22 27 28 29 30 42 43 43 43 44 44 44 43 44 45 45
41 42 42 40 35 29 25 24 23 26 27 26 25 25 27 28 31 42 42 42 42 42 42 42 43 44 41
30 35 34 37 39 30 26 18 19 20 26 21 22 22 19 26 27 29 30 39 41 42 42 42 42 39 33
28 28 29 29 28 28 28 20 14 16 30 22 13 19 18 20 24 25 27 29 29 29 38 39 40 40 35
28 26 26 25 25 26 29 26 25 22 26 24 15 14 14 22 19 24 22 25 21 21 28 37 38 38 38
26 24 24 25 22 22 24 24 21 27 29 25 24 11 14 20 18 22 26 24 25 23 31 32 31 33 31
24 24 23 20 20 19 17 19 21 24 28 31 28 27 24 16 18 21 23 23 19 20 23 26 33 35 33
24 24 25 25 23 19 19 20 21 19 20 24 30 29 27 25 24 25 27 27 20 21 25 25 26 30 30
25 24 25 24 24 21 21 23 22 21 18 18 20 22 24 28 31 25 26 25 21 21 26 27 26 26 28
24 23 24 25 29 25 25 24 21 20 19 17 17 18 17 18 24 34 24 26 25 25 24 22 24 27 28

GFSFLT2_sfc_temp_096.txt.gz
Temp
42 43 42 43 44 42 43 44 45 51 52 51 51 52 52 52 52 53 54 54 55 56 56 56 56 56 56
40 40 41 42 42 41 42 44 42 49 50 50 51 51 51 51 51 51 52 52 53 53 54 55 55 55 56
39 41 39 37 35 36 36 37 42 47 48 49 49 49 50 50 49 49 50 50 50 50 50 51 51 52 53
40 38 37 35 35 34 33 34 34 39 42 44 45 47 48 47 46 46 46 47 49 48 48 48 48 49 50
37 35 31 32 32 32 31 30 30 30 31 32 32 32 34 40 42 44 45 45 46 46 47 47 47 48 48
27 32 30 31 30 31 29 25 26 30 29 29 30 29 31 32 43 43 43 44 45 45 46 46 47 48 48
32 32 30 32 30 28 28 26 26 29 29 27 28 29 30 35 43 43 43 43 44 45 45 45 46 47 47
34 33 33 32 33 31 30 27 28 29 27 22 26 28 28 30 41 43 44 43 44 44 44 43 44 44 45
40 41 41 40 35 31 27 25 24 26 27 26 24 25 26 28 30 42 42 42 42 42 42 42 43 44 41
32 35 36 38 40 32 28 19 21 21 26 21 22 22 19 26 26 29 29 39 40 42 42 42 42 35 33
30 29 30 30 30 30 29 22 17 16 28 21 11 18 16 19 24 24 27 29 28 29 37 39 40 39 34
29 28 28 27 27 28 29 26 24 22 26 19 12 14 10 15 20 24 22 22 21 22 23 34 38 39 38
27 26 27 27 25 24 24 23 18 24 26 18 19 13 17 17 16 19 22 22 22 20 29 25 30 32 31
27 26 25 24 24 21 17 15 15 18 25 24 22 23 21 25 20 17 19 17 18 19 22 22 26 30 33
26 25 26 26 25 19 16 14 14 14 17 22 28 28 26 22 20 21 21 26 28 19 21 21 23 27 29
25 25 25 25 23 19 17 19 20 16 16 16 18 20 24 26 30 23 23 26 27 20 22 21 19 25 28
26 25 24 24 28 23 23 24 23 20 20 16 14 15 18 18 23 34 21 19 20 20 23 23 23 25 27

GFSFLT2_sfc_temp_099.txt.gz
Temp
42 43 43 43 44 43 44 44 46 52 52 52 52 52 53 53 53 54 55 56 57 57 57 57 57 57 57
40 40 41 43 43 41 43 44 43 49 50 51 51 52 51 51 51 51 52 53 54 55 55 56 56 57 57
39 40 39 39 38 38 36 36 41 46 47 49 50 50 50 49 49 49 50 50 50 51 51 51 52 53 54
40 38 38 38 37 33 32 33 33 39 42 43 44 47 48 47 46 46 47 48 49 49 49 48 49 49 50
38 36 35 34 31 32 31 30 30 30 32 32 32 32 34 39 41 44 45 46 46 47 47 47 47 48 49
35 35 34 31 31 31 28 27 27 30 30 30 30 30 31 32 44 44 44 44 45 46 46 46 47 48 48
34 32 31 31 30 28 29 28 27 30 30 28 29 30 30 34 42 43 43 43 44 45 45 45 46 47 47
35 34 33 32 33 33 31 29 29 30 29 24 27 28 28 29 40 44 44 44 44 44 44 44 44 44 45
40 41 41 40 36 32 29 28 26 27 28 28 25 25 26 27 30 42 42 43 42 42 42 42 43 43 39
32 35 38 38 40 33 30 24 24 23 28 25 23 22 19 26 26 28 29 39 41 42 41 42 42 33 31
30 30 30 30 30 30 30 25 20 21 29 22 12 18 15 19 23 24 27 28 28 29 36 39 40 38 27
29 28 28 28 29 29 30 28 28 26 29 20 13 15 8 13 19 23 22 22 22 22 23 33 38 39 40
27 26 27 28 27 27 27 27 26 27 27 19 17 9 12 11 14 19 21 22 23 20 21 22 23 27 25
27 27 27 24 25 24 21 23 21 21 25 21 18 18 14 16 17 16 19 17 19 20 22 22 25 27 27
27 27 27 27 25 21 19 16 17 16 18 22 27 25 23 20 18 21 21 17 20 21 21 17 22 25 27
27 26 25 25 24 18 16 17 18 17 17 18 18 21 24 26 30 23 20 22 28 27 22 21 24 25 28
28 26 24 25 28 22 21 20 21 20 21 21 18 18 19 19 24 34 25 19 21 24 23 22 19 23 27

GFSFLT2_sfc_temp_102.txt.gz
Temp
42 43 43 44 44 44 44 45 47 52 52 52 52 53 52 52 53 54 55 56 57 58 58 58 58 58 58
40 40 41 43 43 42 43 45 44 50 51 52 52 52 51 51 51 52 53 54 55 57 57 57 58 58 58
39 41 40 39 39 39 39 39 42 46 47 49 50 50 50 49 49 50 50 51 51 52 52 53 54 55 56
40 38 38 38 39 36 35 33 34 38 41 43 44 47 47 47 46 47 48 49 50 50 49 49 50 51 52
38 36 35 35 35 35 33 30 30 31 32 32 33 33 35 39 42 45 46 47 48 48 48 48 48 49 50
36 36 35 35 34 34 29 28 29 30 31 31 32 32 32 34 44 44 44 45 46 46 47 47 47 48 49
37 37 35 35 31 29 29 28 28 29 31 29 31 31 32 34 43 44 44 44 45 46 46 46 47 47 47
37 36 35 32 35 33 31 28 29 30 30 26 29 30 30 31 40 44 44 44 44 45 45 45 45 45 46
41 41 41 40 36 33 29 29 28 29 30 29 27 28 28 30 31 43 44 44 43 43 43 43 43 43 39
31 33 37 39 40 33 31 28 27 26 29 27 26 26 23 27 28 29 30 40 42 42 42 43 42 32 32
30 30 30 30 30 31 31 28 25 25 31 26 21 24 20 23 26 26 27 29 28 29 37 39 41 37 29
29 28 29 29 29 29 30 28 30 28 32 26 21 21 16 18 22 25 22 22 22 22 24 33 39 40 40
27 26 28 28 27 26 27 28 27 29 29 25 24 17 17 16 20 21 21 22 23 21 22 23 24 27 25
26 26 26 23 24 24 24 23 21 22 27 21 22 21 15 17 18 16 21 18 19 21 24 25 27 28 27
26 26 26 25 26 24 23 19 18 18 18 23 26 24 22 20 16 21 22 19 21 22 23 19 23 26 27
26 27 27 26 24 21 19 19 19 18 17 18 18 21 23 26 30 23 20 19 21 26 27 23 23 26 27
28 25 23 23 28 23 21 21 20 20 20 21 19 17 15 19 25 34 25 19 22 26 26 24 24 23 28

GFSFLT2_sfc_temp_105.txt.gz
Temp
44 46 45 45 45 46 46 48 51 53 53 53 53 53 52 53 53 54 56 57 60 62 62 61 61 60 60
42 42 43 44 44 43 45 46 48 51 52 52 52 51 51 52 52 52 53 54 55 56 57 58 58 58 59
42 43 42 41 40 40 41 42 44 47 48 50 51 50 49 50 50 51 51 52 52 53 54 56 58 58 59
42 40 40 40 40 37 37 38 39 42 44 45 46 47 47 47 47 48 49 50 50 51 51 51 52 54 55
40 38 37 36 37 38 37 36 37 42 42 41 43 42 42 43 44 46 47 48 49 49 49 49 50 51 52
38 38 38 38 37 36 34 34 36 40 41 39 40 39 41 43 45 45 45 46 47 48 48 48 49 50 50
39 39 38 38 36 34 34 37 39 36 38 38 40 39 40 41 44 44 44 45 46 46 47 47 48 49 48
40 40 40 41 43 39 39 36 35 34 37 35 37 38 39 39 40 44 44 45 45 46 46 46 47 47 47
41 41 42 41 41 39 36 35 34 35 36 36 34 34 35 37 39 43 44 45 45 45 44 44 45 44 46
39 38 40 42 40 39 37 34 33 32 35 34 31 33 31 34 36 37 40 43 43 43 43 43 42 43 43
37 36 37 37 37 37 37 35 33 33 35 34 30 31 31 31 33 34 36 37 38 38 39 41 42 41 40
35 34 34 34 34 34 34 34 35 33 36 32 30 31 30 29 31 32 33 34 34 34 35 38 40 42 41
33 33 33 34 31 31 31 31 32 32 32 31 31 27 30 31 30 30 31 32 32 32 33 33 35 37 36
33 34 32 31 31 32 31 30 31 30 30 29 30 29 28 29 29 29 31 30 30 31 32 32 34 35 35
32 32 32 31 31 30 30 29 30 29 29 30 30 30 30 29 27 29 30 29 30 30 30 30 32 34 35
32 32 31 30 30 29 29 29 29 29 29 29 29 28 29 31 32 30 29 29 30 30 30 28 28 33 35
32 31 30 30 31 29 28 28 27 29 29 29 27 27 25 26 32 34 29 29 29 29 31 29 29 33 36

GFSFLT2_sfc_temp_108.txt.gz
Temp
52 51 49 48 48 48 48 49 51 53 53 53 53 52 53 53 53 54 56 59 63 63 64 63 62 62 61
47 45 46 47 46 44 45 46 48 50 52 52 52 51 51 52 52 52 52 54 55 59 60 61 60 60 61
45 45 44 43 42 42 41 41 45 45 48 50 51 50 49 49 50 50 51 51 52 53 55 56 57 58 59
46 43 43 42 42 38 37 39 39 44 44 46 48 46 47 47 47 48 49 50 51 51 51 52 53 56 58
43 40 39 38 38 39 37 37 38 40 42 48 49 48 47 46 46 47 48 49 50 50 50 51 52 53 54
40 38 39 40 40 38 35 34 34 40 44 45 47 45 46 48 45 45 46 47 48 48 49 49 50 51 52
40 41 41 40 39 36 36 37 38 40 45 42 44 42 41 43 44 44 45 46 47 47 47 48 49 49 49
42 42 41 41 40 40 39 37 38 40 43 38 40 40 42 45 41 44 45 45 46 46 47 48 48 48 48
42 42 42 42 45 44 37 37 38 40 39 39 38 38 40 41 43 43 45 45 46 45 45 46 46 46 47
41 42 44 42 42 45 43 37 38 36 40 37 34 36 33 39 40 41 43 44 43 44 44 44 44 46 46
43 43 42 42 43 43 43 38 36 37 40 38 34 35 35 33 36 38 40 40 41 41 41 43 43 43 42
40 40 39 39 38 39 38 39 39 35 39 34 33 34 34 33 34 35 36 38 37 37 38 40 41 42 42
37 37 38 37 34 34 34 34 33 34 34 32 33 32 33 33 33 34 32 34 35 35 36 36 37 40 38
38 38 37 34 35 35 33 34 33 33 32 32 32 32 32 33 34 33 34 32 33 34 35 36 38 39 39
37 36 35 35 34 34 33 32 32 32 32 32 33 33 33 32 31 33 34 33 33 33 33 32 35 37 38
36 36 35 33 33 32 32 32 32 33 32 32 31 31 31 33 34 33 33 33 33 32 33 31 33 37 38
35 34 34 33 33 32 32 32 32 33 33 33 31 30 29 30 35 35 32 33 33 31 33 32 32 35 38

GFSFLT2_sfc_temp_111.txt.gz
Temp
52 51 50 49 47 48 48 48 50 52 53 53 52 52 52 53 53 53 54 56 63 65 65 65 64 62 61
49 47 47 47 46 44 45 47 47 50 52 52 51 51 51 51 51 51 52 53 56 60 62 62 61 61 61
46 46 44 43 41 42 42 42 45 46 48 50 50 49 49 49 50 50 50 51 52 53 55 57 59 60 61
48 44 44 43 42 39 38 39 39 44 44 47 47 47 47 48 48 48 49 50 51 51 52 52 54 56 58
45 41 39 38 38 39 37 37 37 38 39 41 44 43 42 47 47 47 48 49 50 50 51 51 52 53 53
42 39 39 39 39 36 35 34 34 38 38 39 41 39 40 41 45 46 47 48 49 49 50 50 50 52 52
41 40 39 40 38 35 35 35 36 37 38 38 38 36 37 42 44 44 45 46 47 48 48 49 50 50 50
41 41 40 40 40 38 37 35 36 37 38 34 35 35 36 38 42 44 45 45 46 47 47 48 48 48 49
43 43 42 43 42 38 34 34 33 34 36 34 32 32 34 35 38 44 45 45 46 46 47 47 47 47 46
39 40 42 42 43 40 38 35 35 33 35 31 30 30 27 33 35 37 38 44 45 45 45 45 45 41 39
38 38 38 38 37 37 37 35 33 32 36 33 29 29 31 28 31 33 35 37 37 38 44 44 44 42 37
35 35 34 33 33 33 33 34 33 33 35 32 31 30 29 28 28 31 32 34 34 34 34 40 43 43 43
32 32 33 32 31 30 31 32 32 32 31 27 31 28 30 29 30 29 28 31 32 32 32 31 32 34 32
32 32 32 30 30 31 29 30 30 29 31 29 29 29 26 28 30 29 29 28 30 30 31 31 33 34 33
32 31 31 31 30 30 29 30 28 29 29 29 31 31 30 28 26 29 29 28 29 29 30 29 30 32 33
32 31 30 30 29 28 29 29 29 30 29 29 28 27 27 30 34 28 29 29 29 30 29 27 28 32 34
31 31 30 30 31 29 29 29 29 29 30 31 29 27 23 23 28 36 29 30 30 29 29 29 27 30 33

GFSFLT2_sfc_temp_114.txt.gz
Temp
46 47 47 45 46 47 47 47 49 52 53 53 52 52 52 52 52 53 54 55 59 64 65 65 66 65 64
46 45 45 46 45 44 45 47 46 50 52 52 51 51 50 50 50 51 52 53 55 58 62 63 64 63 61
45 44 43 43 41 42 42 42 45 46 48 50 50 49 49 49 49 50 50 51 53 54 56 58 60 60 60
45 43 42 42 41 39 38 39 40 44 44 46 47 48 48 48 48 48 49 50 51 52 53 53 55 57 59
42 39 39 38 38 39 37 37 38 39 38 41 42 42 39 43 44 47 48 49 49 50 51 52 52 52 53
39 39 40 39 39 37 35 34 34 38 36 37 40 37 35 36 45 46 47 48 49 49 49 50 50 51 52
40 40 39 40 38 36 35 34 35 37 37 35 37 34 33 39 43 44 46 47 48 48 50 50 50 50 50
37 38 40 40 40 38 37 35 35 36 37 33 35 30 31 32 43 45 45 46 46 47 49 49 49 49 49
43 44 44 44 42 37 34 33 32 34 35 34 33 29 29 30 34 44 45 46 46 47 48 48 48 48 47
34 37 41 41 44 38 35 33 33 33 34 33 25 26 22 29 31 33 34 45 46 46 46 46 46 39 38
32 32 33 33 32 34 35 35 33 33 32 29 23 24 30 23 26 28 32 34 33 36 45 45 44 41 36
31 30 29 27 27 28 30 29 32 33 31 28 29 23 22 22 23 26 27 27 28 29 31 40 44 44 44
27 26 26 28 26 25 27 31 31 28 30 28 30 31 31 26 23 24 24 26 28 29 29 30 31 34 32
26 26 26 23 23 23 20 21 21 27 29 26 27 26 25 26 24 23 26 24 26 28 30 30 33 34 34
26 26 27 26 25 22 21 20 20 21 24 27 30 30 29 28 25 27 26 26 26 27 28 27 30 32 33
26 27 25 24 22 21 21 20 21 23 23 24 24 27 27 30 34 27 28 27 26 29 28 23 27 30 33
28 25 23 23 29 24 23 21 22 24 25 28 25 24 21 22 29 36 28 28 27 27 28 27 24 28 32

GFSFLT2_sfc_temp_117.txt.gz
Temp
45 44 44 44 46 45 47 47 48 52 53 53 52 52 52 52 52 52 53 54 55 58 64 65 65 65 64
44 43 45 45 45 44 45 45 45 49 52 52 51 51 50 50 50 51 51 52 53 55 61 64 64 64 64
43 43 43 43 41 40 42 40 45 46 48 50 49 50 50 50 49 49 49 50 52 53 55 60 60 60 62
42 43 43 41 38 39 39 40 40 44 45 46 47 48 48 48 47 47 48 49 50 53 53 53 56 58 59
40 40 40 37 36 38 37 37 38 39 39 41 42 41 41 41 43 46 48 48 49 50 52 52 52 54 57
39 39 40 40 38 37 36 34 35 38 36 37 40 37 38 37 45 46 47 48 48 49 50 50 50 51 53
39 40 39 40 38 36 35 35 35 37 36 35 37 36 34 37 44 45 46 47 48 48 49 49 49 50 51
36 37 39 40 40 39 37 36 35 36 36 33 35 34 31 31 42 45 45 46 47 48 49 49 48 49 50
43 43 44 45 42 37 34 33 33 34 35 34 33 32 29 29 32 43 45 45 46 47 48 48 48 48 47
34 36 39 40 44 38 35 33 33 33 34 30 30 25 22 28 29 32 33 44 45 46 47 47 45 38 37
31 31 32 31 31 34 34 34 33 33 34 27 20 22 23 24 28 29 30 32 33 33 44 45 45 40 35
30 29 28 27 26 27 29 29 32 33 34 24 21 20 19 22 25 28 26 26 27 27 27 38 44 44 43
27 26 26 27 26 26 29 31 30 30 31 30 28 30 24 22 26 27 26 28 28 26 27 27 29 31 30
27 26 30 28 22 21 17 27 21 26 27 27 29 23 21 24 27 27 28 26 27 28 30 30 33 33 33
26 26 27 25 24 20 18 17 17 22 25 25 29 29 27 26 27 29 28 28 27 29 29 29 31 33 33
26 26 24 22 20 21 18 18 17 21 21 22 23 25 28 31 34 28 26 27 27 29 29 27 27 30 32
25 23 21 20 26 20 19 19 20 24 24 24 22 18 18 25 30 36 26 25 26 27 27 28 26 29 32